FENGYUN 1C DEB, 31829

Orbit data source: Space-Track

FENGYUN 1C DEB, 31829 is space debris in SSO originally from a launch on Mon, 10 May 1999 UTC launched from the Taiyaun Space Center, China (TSC). Fengyun 1C debris stems from the Chinese weather satellite Fengyun-1C, which was intentionally destroyed by a Chinese anti-satellite missile in 2007. This event dramatically increased the amount of space debris, with thousands of trackable fragments posing hazards to satellites and human spaceflight. The Fengyun 1C debris cloud has become a focal point in discussions about space sustainability and the need for international regulations to prevent the creation of new debris.

Loading next visibility...
Identifier
31829, 1999-025CHT
Orbit
SSO
Country
Flag of CNCN / PRC
Related business
Manufacturer
Unknown
Mission
Spacecraft
Bus & Motor
Unknown
Mass
Unknown
Launch date (UTC)
1999-05-10 (27 years ago)
Launch vehicle
Unknown
Launch site
Taiyaun Space Center, China (TSC)
Object type
Payload
Rocket body
Debris
Shape & HBR
Unknown shape, 0.1 m
Radar Cross Section
Medium (>0.1 m² and <1 m²)

Expand to show TLE details & history
Last TLE update: 5 days ago

TLE from 5 days ago
0 FENGYUN 1C DEB
1 31829U 99025CHT 26167.23247538  .00000253  00000-0  21709-3 0  9996
2 31829  98.8557 332.7156 0168836  19.4622 160.4767 13.88869295967226
Epoch: 2026-06-16T05:34Z
TLE epoch observation values (Epoch: 2026-06-16T05:34:45.872Z)
Latitude
-0.68345°
Longitude
164.41106°
Altitude
1,052.141 km
Speed
7.267 km/s
True Right ascension
10h 10m 26s
True Declination
0° 40' 46"
Sunlit
Object was in daylight at epoch
Visualization orbit readout
Latitude
Unknown
Longitude
Unknown
Altitude
Unknown
Speed
Unknown
Apparent Right ascension
Unknown
Apparent Declination
Unknown
Sunlit
N/A
Visualization observer readout
Local Sidereal Time
22:17:08
Azimuth
Unknown
Elevation
Unknown
Doppler factor
Unknown
Orbital elements
Apogee altitude
1,053.186 km
Perigee altitude
806.418 km
Semi-major axis
7,307.939 km
Eccentricity
0.01688
Inclination
98.8557°
RAAN
332.7156°
Arg. of periapsis
19.4622°
True anomaly
161.11063°
Mean anomaly
160.4767°
Eccentric anomaly
160.79491°
Mean motion
3.47417 °/min
Orbital period
103.62 mins
BSTAR
0.00021709
Loading maneuver chart data...
Computing Atmospheric mass density...

Documentation

Showing up to 5 results
|